Location: Deer Path Park
(40.5570°N, 74.8450°W)
Time: 04:30:03
(UTC-04:00)

Iridium 49 - Visible Passes

Search period start: 28 May 2017 00:00
Search period end: 07 June 2017 00:00
Orbit: 776 x 779 km, 86.4° (Epoch: 27 May)

Date Brightness Start Highest point End Pass type
(mag) Time Alt. Az. Time Alt. Az. Time Alt. Az.
28 May 7.5 01:25:55 26° E 01:26:38 26° E 01:30:55 10° NNE visible
28 May 6.8 03:06:23 32° W 03:07:10 34° W 03:11:55 10° NNW visible
29 May 8.2 00:52:31 14° E 00:53:26 15° ENE 00:56:11 10° NE visible
29 May 6.0 02:32:59 59° WSW 02:33:32 63° W 02:38:43 10° N visible
30 May 6.0 01:59:35 67° SE 02:00:00 71° E 02:05:12 10° N visible
30 May 8.0 03:40:03 12° W 03:41:16 13° WNW 03:43:41 10° NW visible
31 May 6.9 01:26:11 37° E 01:26:36 38° E 01:31:23 10° NNE visible
31 May 7.3 03:06:39 23° W 03:07:24 24° WNW 03:11:36 10° NNW visible
01 Jun 7.8 00:52:46 21° E 00:53:19 21° E 00:57:08 10° NNE visible
01 Jun 6.5 02:33:14 42° W 02:33:41 43° W 02:38:39 10° N visible
02 Jun 8.4 00:19:21 11° E 00:20:09 11° ENE 00:21:36 10° ENE visible
02 Jun 5.9 01:59:49 77° SW 02:00:04 80° W 02:05:19 10° N visible
03 Jun 6.3 01:26:23 55° E 01:26:36 55° E 01:31:41 10° NNE visible
03 Jun 7.8 03:06:51 16° W 03:07:41 17° WNW 03:11:00 10° NW visible
04 Jun 7.2 00:52:57 30° E 00:53:15 30° E 00:57:44 10° NNE visible
04 Jun 7.1 02:33:25 30° W 02:33:52 30° W 02:38:27 10° NNW visible
05 Jun 8.0 00:19:30 16° E 00:20:01 17° ENE 00:23:11 10° NE visible
05 Jun 6.2 01:59:58 55° W 02:00:12 55° W 02:05:20 10° N visible
06 Jun 5.9 01:26:32 80° ESE 01:26:39 80° E 01:31:53 10° N visible
06 Jun 8.2 03:07:00 11° W 03:08:01 11° WNW 03:09:41 10° NW visible
